Location: Heidgraben
(53.7081°N, 9.6576°E)
Time: 08:22:39
(UTC+00:00)

COSMOS 2455 - Pass Details

Date: 05 July 2020
Orbit: 898 x 911 km, 67.1° (Epoch: 14 August)

Event Time Altitude Azimuth Distance (km) Brightness Sun altitude
Rises 21:39:04 0° 316° (NW) 3,550 7.5 -10.2°
Reaches altitude 10° 21:41:44 10° 324° (NW) 2,608 6.7 -10.4°
Maximum altitude 21:47:29 43° 35° (NE) 1,263 3.9 -10.7°
Drops below altitude 10° 21:53:13 10° 106° (ESE) 2,600 4.9 -11.0°
Enters shadow 21:55:17 - 112° (ESE) 3,332 5.4 -11.1°
